Location: Austin
(30.3000°N, 97.7500°W)
Time: 07:01:29
(UTC-05:00)

ARGOS - Pass Details

Date: 16 June 2025
Orbit: 819 x 832 km, 98.5° (Epoch: 07 July)

Event Time Altitude Azimuth Distance (km) Brightness Sun altitude
Rises 05:27:55 0° 15° (NNE) 3,367 7.2 -12.0°
Reaches altitude 10° 05:30:17 10° 17° (NNE) 2,433 6.4 -11.6°
Maximum altitude 05:35:40 74° 102° (ESE) 864 3.4 -10.6°
Drops below altitude 10° 05:41:03 10° 187° (S) 2,428 5.2 -9.7°
Sets 05:43:24 0° 189° (S) 3,359 5.9 -9.3°
